This demonstration page uses our WeatherBlox Daily Observations layout. Learn more.

Left ArrowRight Arrow

38.20091, -84.87328

Hourly Observations for July 23, 2018

Temp ( °F °C ) Dew Point ( °F °C ) Humidity (%) Winds ( mph kmh ) Pressure ( in mb ) Visibility ( mi km ) Precip ( " mm )
12:53 am 00:53 Mostly Cloudy 71 21.7 67 19.4 87 87 N 5 7 29.78 1009 10 16 0.00 0.00
1:53 am 01:53 Clear 70 21.1 66 18.9 87 87 N 3 6 29.77 1008 10 16 0.00 0.00
2:53 am 02:53 Clear 69 20.6 65 18.3 87 87 N 5 7 29.77 1008 10 16 0.00 0.00
3:42 am 03:42 Mostly Cloudy 68 20 65 18.3 90 90 NNW 7 11 29.77 1008 10 16 0.00 0.00
3:53 am 03:53 Cloudy 68 20 65 18.3 90 90 NNW 6 9 29.79 1009 10 16 0.00 0.00
4:09 am 04:09 Cloudy 67 19.4 64 17.8 91 91 N 7 11 29.77 1008 10 16 0.00 0.00
4:53 am 04:53 Cloudy 67 19.4 64 17.8 91 91 NNW 10 17 29.80 1009 10 16 0.00 0.00
5:39 am 05:39 Cloudy 67 19.4 64 17.8 91 91 NNE 8 13 29.80 1009 10 16 0.00 0.00
5:53 am 05:53 Cloudy 67 19.4 64 17.8 91 91 N 7 11 29.80 1009 10 16 0.00 0.00
6:53 am 06:53 Cloudy 67 19.4 64 17.8 91 91 N 6 9 29.83 1010 10 16 0.00 0.00
7:53 am 07:53 Cloudy 67 19.4 63 17.2 87 87 N 6 9 29.83 1010 10 16 0.00 0.00
8:53 am 08:53 Cloudy 68 20 64 17.8 87 87 N 7 11 29.83 1010 10 16 0.00 0.00
9:53 am 09:53 Cloudy 69 20.6 64 17.8 84 84 N 6 9 29.85 1011 10 16 0.00 0.00
10:51 am 10:51 Cloudy 70 21 64 18 83 83 NNW 6 9 29.85 1011 10 16 0.00 0.00
10:53 am 10:53 Cloudy 70 21.1 65 18.3 84 84 NNW 7 11 29.85 1011 10 16 0.00 0.00
11:53 am 11:53 Cloudy 71 21.7 65 18.3 81 81 NNW 5 7 29.86 1011 10 16 0.00 0.00
12:53 pm 12:53 Cloudy 72 22.2 65 18.3 79 79 NNW 8 13 29.87 1012 10 16 0.00 0.00
1:53 pm 13:53 Cloudy 74 23.3 65 18.3 74 74 N 6 9 29.87 1012 10 16 0.00 0.00
2:53 pm 14:53 Cloudy 75 23.9 64 17.8 69 69 NNW 8 13 29.87 1012 10 16 0.00 0.00
3:46 pm 15:46 Cloudy 77 25 65 18.3 66 66 N 6 9 29.85 1011 10 16 0.00 0.00
3:53 pm 15:53 Cloudy 78 25.6 65 18.3 64 64 VRB 3 6 29.87 1011 10 16 0.00 0.00
4:53 pm 16:53 Cloudy 79 26.1 65 18.3 62 62 NNW 8 13 29.86 1011 10 16 0.00 0.00
5:53 pm 17:53 Cloudy 78 25.6 63 17.2 60 60 NNW 6 9 29.87 1011 10 16 0.00 0.00
6:53 pm 18:53 Cloudy 75 23.9 67 19.4 76 76 ESE 5 7 29.87 1012 10 16 0.00 0.00
7:53 pm 19:53 Cloudy 77 25 66 18.9 69 69 E 5 7 29.89 1012 10 16 0.00 0.00
8:53 pm 20:53 Cloudy 76 24.4 65 18.3 69 69 Calm 29.91 1013 10 16 0.00 0.00
9:53 pm 21:53 Mostly Cloudy 72 22.2 67 19.4 84 84 Calm 29.93 1013 10 16 0.00 0.00
10:53 pm 22:53 Clear 70 21.1 67 19.4 90 90 Calm 29.93 1014 10 16 0.00 0.00
11:53 pm 23:53 Clear 68 20 66 18.9 93 93 Calm 29.93 1014 8 13 0.00 0.00

Powered by AerisWeather